Location: Ailly
(50.0793°N, 1.9944°E)
Time: 16:51:12
(UTC+00:00)

Cosmos 1844 Rocket - Pass Details

Date: 15 January 2026
Orbit: 822 x 845 km, 71.0° (Epoch: 16 February)

Event Time Altitude Azimuth Distance (km) Brightness Sun altitude
Exits shadow 06:12:24 13° 324° (NW) 2,255 4.5 -14.3°
Maximum altitude 06:13:15 13° 334° (NNW) 2,232 4.5 -14.2°
Drops below altitude 10° 06:15:58 10° 3° (N) 2,475 5.0 -13.8°
Sets 06:19:53 0° 29° (NNE) 3,415 6.0 -13.2°
